Grand Marais, MN

12:17 PM CST on January 22, 2017 (GMT -0600)
Grand Marais-Cook County

Weather History for KCKC - October, 2011

Change the Weather History Date:

Thursday, October 20, 2011

  Actual Average Record
Temperature  
Mean Temperature 34 °F -  
Max Temperature 41 °F 44 °F 60 °F (2003)
Min Temperature 28 °F 31 °F 23 °F (2002)
Degree Days  
Heating Degree Days 30    
Moisture  
Dew Point 25 °F    
Average Humidity 71    
Maximum Humidity 86    
Minimum Humidity 53    
Precipitation  
Precipitation 0.00 in - - ()
Sea Level Pressure  
Sea Level Pressure 29.94 in    
Wind  
Wind Speed 14 mph (NNW)    
Max Wind Speed 20 mph    
Max Gust Speed 29 mph    
Visibility 10 miles    
Events      
Averages and records for this station are not official NWS values.
T = Trace of Precipitation, MM = Missing Value Source: NWS Daily Summary

Daily Weather History Graph

Daily Weather History Graph

Search for Another Location

Airport or City:

Trip Planner

Search our weather history database for the weather conditions in past years. The results will help you decide how hot, cold, wet, or windy it might be!

Date:

Astronomy

Oct. 20, 2011 Rise Set
Actual Time 7:27 AM CDT 6:04 PM CDT
Civil Twilight 6:56 AM CDT 6:35 PM CDT
Nautical Twilight 6:20 AM CDT 7:11 PM CDT
Astronomical Twilight 5:44 AM CDT 7:47 PM CDT
Moon No Moon Rise 2:41 PM CDT (10/20)
Length of Visible Light 11h 39m
Length of Day
10h 36m
Last Quarter, 44% of the Moon is Illuminated
Oct 20
Last Quarter
Oct 26
New
Nov 2
First Quarter
Nov 10
Full
Nov 18
Last Quarter

Hourly Weather History & Observations

Time (CDT) Temp. Windchill Dew Point Humidity Pressure Visibility Wind Dir Wind Speed Gust Speed Precip Events Conditions
12:13 AM 32.0 °F 22.5 °F 26.6 °F 80% 30.05 in 10.0 mi North 12.7 mph - N/A   Clear
12:33 AM 32.0 °F 24.2 °F 26.6 °F 80% 30.05 in 10.0 mi North 9.2 mph - N/A   Clear
12:54 AM 32.0 °F 23.0 °F 26.6 °F 80% 30.03 in 10.0 mi North 11.5 mph 18.4 mph N/A   Scattered Clouds
1:13 AM 32.0 °F 23.0 °F 26.6 °F 80% 30.03 in 10.0 mi North 11.5 mph 23.0 mph N/A   Clear
1:33 AM 32.0 °F 23.0 °F 26.6 °F 80% 30.02 in 10.0 mi North 11.5 mph 19.6 mph N/A   Clear
1:50 AM 32.0 °F 23.0 °F 26.6 °F 80% 30.02 in 10.0 mi North 11.5 mph - N/A   Clear
2:12 AM 32.0 °F - 26.6 °F 80% 30.01 in 10.0 mi North - - N/A   Clear
2:33 AM 32.0 °F 21.6 °F 26.6 °F 80% 30.01 in 10.0 mi NNW 15.0 mph 21.9 mph N/A   Clear
2:54 AM 32.0 °F 21.6 °F 26.6 °F 80% 30.00 in 10.0 mi NNW 15.0 mph 24.2 mph N/A   Clear
3:14 AM 32.0 °F 21.2 °F 26.6 °F 80% 30.00 in 10.0 mi NNW 16.1 mph 27.6 mph N/A   Clear
3:33 AM 32.0 °F 20.5 °F 26.6 °F 80% 29.99 in 10.0 mi NNW 18.4 mph 24.2 mph N/A   Clear
3:53 AM 32.0 °F 20.8 °F 26.6 °F 80% - 10.0 mi NNW 17.3 mph 25.3 mph N/A   Clear
4:13 AM 30.2 °F 18.5 °F 26.6 °F 86% 29.97 in 10.0 mi NNW 17.3 mph 24.2 mph N/A   Clear
4:34 AM 30.2 °F 18.9 °F 26.6 °F 86% 29.97 in 10.0 mi NNW 16.1 mph 23.0 mph N/A   Clear
5:09 AM 30.2 °F 19.3 °F 24.8 °F 80% 29.96 in 10.0 mi NNW 15.0 mph 24.2 mph N/A   Scattered Clouds
5:33 AM 30.2 °F 18.1 °F 24.8 °F 80% 29.96 in 10.0 mi NNW 18.4 mph 27.6 mph N/A   Scattered Clouds
6:13 AM 28.4 °F 18.0 °F 24.8 °F 86% 29.96 in 10.0 mi North 12.7 mph 25.3 mph N/A   Clear
6:34 AM 28.4 °F 17.0 °F 24.8 °F 86% 29.97 in 10.0 mi North 15.0 mph 23.0 mph N/A   Clear
6:53 AM 28.4 °F 18.0 °F 24.8 °F 86% 29.96 in 10.0 mi NNW 12.7 mph 24.2 mph N/A   Scattered Clouds
7:13 AM 28.4 °F 15.4 °F 23.0 °F 80% 29.96 in 10.0 mi North 19.6 mph 28.8 mph N/A   Scattered Clouds
7:33 AM 28.4 °F 17.0 °F 24.8 °F 86% 29.96 in 7.0 mi NNW 15.0 mph 21.9 mph N/A   Scattered Clouds
7:54 AM 28.4 °F 19.7 °F 23.0 °F 80% 29.97 in 10.0 mi North 9.2 mph 19.6 mph N/A   Scattered Clouds
8:14 AM 28.4 °F 18.5 °F 24.8 °F 86% 29.95 in 10.0 mi NNW 11.5 mph 21.9 mph N/A   Scattered Clouds
8:33 AM 30.2 °F 20.2 °F 24.8 °F 80% 29.94 in 10.0 mi NNW 12.7 mph 19.6 mph N/A   Scattered Clouds
8:54 AM 30.2 °F 18.9 °F 24.8 °F 80% 29.94 in 10.0 mi NNW 16.1 mph 24.2 mph N/A   Clear
9:14 AM 32.0 °F 22.1 °F 24.8 °F 75% 29.93 in 10.0 mi NNW 13.8 mph 18.4 mph N/A   Scattered Clouds
9:33 AM 33.8 °F 24.3 °F 24.8 °F 70% 29.93 in 10.0 mi NNW 13.8 mph 23.0 mph N/A   Scattered Clouds
9:53 AM 33.8 °F 25.3 °F 24.8 °F 70% 29.93 in 10.0 mi NNW 11.5 mph 21.9 mph N/A   Clear
10:13 AM 33.8 °F 24.3 °F 24.8 °F 70% 29.93 in 10.0 mi North 13.8 mph 18.4 mph N/A   Clear
10:34 AM 33.8 °F 23.2 °F 24.8 °F 70% 29.94 in 10.0 mi NNW 17.3 mph 23.0 mph N/A   Clear
10:53 AM 35.6 °F 28.0 °F 24.8 °F 65% 29.93 in 10.0 mi NNW 10.4 mph 21.9 mph N/A   Clear
11:14 AM 35.6 °F 26.2 °F 24.8 °F 65% 29.93 in 10.0 mi North 15.0 mph 23.0 mph N/A   Clear
11:53 AM 37.4 °F 27.8 °F 24.8 °F 60% 29.92 in 10.0 mi NNW 17.3 mph 26.5 mph N/A   Clear
12:14 PM 37.4 °F 27.2 °F 24.8 °F 60% 29.92 in 10.0 mi NNW 19.6 mph 27.6 mph N/A   Clear
12:33 PM 39.2 °F 30.5 °F 24.8 °F 56% 29.91 in 10.0 mi NNW 16.1 mph 24.2 mph N/A   Clear
12:53 PM 39.2 °F 29.6 °F 24.8 °F 56% 29.91 in 10.0 mi NNW 19.6 mph 27.6 mph N/A   Clear
1:09 PM 39.2 °F 30.8 °F 24.8 °F 56% 29.90 in 10.0 mi NNW 15.0 mph 24.2 mph N/A   Clear
1:21 PM 39.2 °F 31.2 °F 24.8 °F 56% 29.90 in 10.0 mi NW 13.8 mph 26.5 mph N/A   Clear
1:54 PM 41.0 °F 33.9 °F 24.8 °F 53% 29.89 in 10.0 mi NNW 12.7 mph 24.2 mph N/A   Clear
2:13 PM 39.2 °F 29.6 °F 24.8 °F 56% 29.88 in 10.0 mi NNW 19.6 mph 26.5 mph N/A   Clear
2:34 PM 41.0 °F 33.9 °F 24.8 °F 53% 29.88 in 10.0 mi NNW 12.7 mph 24.2 mph N/A   Clear
2:54 PM 41.0 °F 34.7 °F 24.8 °F 53% 29.87 in 10.0 mi NNW 10.4 mph 23.0 mph N/A   Clear
3:13 PM 41.0 °F 32.8 °F 26.6 °F 57% 29.86 in 10.0 mi NNW 16.1 mph 20.7 mph N/A   Clear
3:34 PM 41.0 °F 32.5 °F 24.8 °F 53% 29.87 in 10.0 mi NNW 17.3 mph 23.0 mph N/A   Clear
3:53 PM 39.2 °F 30.8 °F 24.8 °F 56% 29.86 in 10.0 mi NW 15.0 mph 23.0 mph N/A   Clear
4:13 PM 39.2 °F 33.0 °F 24.8 °F 56% 29.86 in 10.0 mi NNW 9.2 mph 19.6 mph N/A   Clear
4:34 PM 39.2 °F 32.0 °F 24.8 °F 56% 29.87 in 10.0 mi NNW 11.5 mph 19.6 mph N/A   Clear
4:54 PM 39.2 °F 32.0 °F 24.8 °F 56% 29.87 in 10.0 mi NW 11.5 mph 18.4 mph N/A   Clear
5:34 PM 37.4 °F 30.3 °F 24.8 °F 60% 29.88 in 10.0 mi NNW 10.4 mph 19.6 mph N/A   Clear
5:54 PM 35.6 °F 25.9 °F 24.8 °F 65% 29.89 in 10.0 mi NNW 16.1 mph 23.0 mph N/A   Clear
6:13 PM 35.6 °F 27.5 °F 24.8 °F 65% 29.89 in 10.0 mi NNW 11.5 mph 17.3 mph N/A   Clear
6:34 PM 35.6 °F 26.6 °F 24.8 °F 65% 29.89 in 10.0 mi NNW 13.8 mph 19.6 mph N/A   Clear
6:54 PM 33.8 °F 25.8 °F 26.6 °F 75% 29.89 in 10.0 mi NNW 10.4 mph 17.3 mph N/A   Clear
7:13 PM 33.8 °F 24.8 °F 24.8 °F 70% 29.89 in 10.0 mi NNW 12.7 mph - N/A   Clear
7:34 PM 33.8 °F 25.3 °F 24.8 °F 70% 29.89 in 10.0 mi NNW 11.5 mph 20.7 mph N/A   Clear
8:14 PM 33.8 °F 24.8 °F 24.8 °F 70% 29.89 in 10.0 mi NNW 12.7 mph - N/A   Clear
8:34 PM 33.8 °F 27.7 °F 24.8 °F 70% 29.90 in 10.0 mi North 6.9 mph - N/A   Clear
8:53 PM 33.8 °F 27.0 °F 24.8 °F 70% 29.90 in 10.0 mi North 8.1 mph - N/A   Clear
9:34 PM 32.0 °F 23.6 °F 24.8 °F 75% 29.89 in 10.0 mi North 10.4 mph - N/A   Clear
9:53 PM 32.0 °F 23.6 °F 24.8 °F 75% 29.90 in 10.0 mi North 10.4 mph 16.1 mph N/A   Clear
10:14 PM 30.2 °F 22.6 °F 24.8 °F 80% 29.90 in 10.0 mi North 8.1 mph - N/A   Clear
10:34 PM 28.4 °F 20.4 °F 24.8 °F 86% 29.90 in 10.0 mi NNW 8.1 mph - N/A   Clear
10:53 PM 30.2 °F 21.9 °F 24.8 °F 80% 29.90 in 10.0 mi NNW 9.2 mph - N/A   Clear
11:13 PM 30.2 °F 21.3 °F 24.8 °F 80% 29.90 in 10.0 mi NNW 10.4 mph - N/A   Clear
11:34 PM 30.2 °F 23.4 °F 24.8 °F 80% 29.90 in 10.0 mi NNW 6.9 mph - N/A   Clear